Regional Weather Roundup
Issued by NWS

Home | Current Version | Previous Version | Text Only | Print | Product List | Glossary Off
Versions: 1 2 3 4 5 6 7 8 9 10 11 12 13 14 15 16 17 18 19 20 21 22 23 24 25 26 27 28 29 30 31 32 33 34 35 36 37 38 39 40 41 42 43 44 45 46 47 48 49 50

928
ASUS43 KDMX 202001
RWRIA

WEATHER ROUNDUP FOR IOWA
NATIONAL WEATHER SERVICE DES MOINES IA
200 PM CST SAT JAN 20 2018

NOTE: "FAIR" INDICATES FEW OR NO CLOUDS BELOW 12,000 FEET WITH NO
SIGNIFICANT WEATHER AND/OR OBSTRUCTIONS TO VISIBILITY.

* - THESE STATIONS ARE NOT NWS STATIONS...THUS NOT UNDER NWS
QUALITY CONTROL.  THEY ALSO DO NOT REPORT WEATHER SUCH
AS PRECIPITATION OR FOG.

IAZ001>003-012>014-020>022-031>034-043>046-202100-
   NORTHWEST IOWA

CITY           SKY/WX    TMP DP  RH WIND       PRES   REMARKS
CARROLL *      SUNNY     48  36  61 VRB5      29.83F
CHEROKEE *     CLOUDY    53  32  45 NE5       29.84F
DENISON *      SUNNY     50  34  53 SE7       29.84S
LE MARS *      SUNNY     52  34  50 N10       29.84F
ORANGE CITY *  MOSUNNY   48  36  61 N5        29.85S
SHELDON *      CLOUDY    46  37  71 N7        29.84F
SIOUX CITY     SUNNY     54  33  45 VRB6      29.82F
SPENCER        PTSUNNY   50  31  48 NE6       29.85F
STORM LAKE *   SUNNY     50  32  50 NE7       29.84R
$$

IAZ055>058-069>071-079>083-090>094-202100-
   SOUTHWEST IOWA

CITY           SKY/WX    TMP DP  RH WIND       PRES   REMARKS
ATLANTIC *     SUNNY     46  37  71 S7        29.83F
AUDUBON *      SUNNY     48  34  57 CALM      29.84S
CLARINDA *     CLOUDY    46  43  87 CALM        N/A
COUNCIL BLFS * SUNNY     45  37  76 VRB6      29.82F
CRESTON *      CLOUDY    46  41  81 SW7       29.85F
HARLAN  *      SUNNY     45  34  65 S6        29.86F
LAMONI         CLOUDY    49  41  74 CALM      29.84F
RED OAK *      CLOUDY    48  41  76 SW5       29.84S
SHENANDOAH *   CLOUDY    45  41  87 NE6       29.85S
$$

IAZ047>049-059>061-072>074-084-202100-
   CENTRAL IOWA

CITY           SKY/WX    TMP DP  RH WIND       PRES   REMARKS
AMES           SUNNY     47  35  63 CALM      29.85F
ANKENY *       SUNNY     48  30  49 VRB3      29.85F
BOONE *        SUNNY     46  36  66 CALM      29.83F
CHARITON *     CLOUDY    46  39  76 W9        29.85F
DES MOINES     MOSUNNY   47  38  71 S8        29.84F
GRINNELL*      SUNNY     46  36  68 SW6       29.88S
KNOXVILLE *    CLOUDY    45  37  76 W7        29.85F
MARSHALLTOWN   SUNNY     47  33  58 CALM      29.85F
NEWTON *       SUNNY     46  36  66 S3        29.86S
PELLA *        CLOUDY    45  38  78 SW7       29.88F
$$

IAZ004>006-015-016-023>025-035-036-202100-
   NORTH CENTRAL IOWA

CITY           SKY/WX    TMP DP  RH WIND       PRES   REMARKS
ALGONA *       SUNNY     48 N/A N/A NE5       29.85S
CLARION *      SUNNY     50  36  57 SE6       29.84F
ESTHERVILLE    PTSUNNY   45  34  65 N7        29.86S
FORT DODGE *   SUNNY     47  36  65 E3        29.85F
MASON CITY     SUNNY     48  35  60 CALM      29.86F
FOREST CITY *    N/A     50  32  50 CALM      29.86S
WEBSTER CITY * SUNNY     48  36  61 VRB3      29.83S
IOWA FALLS *     N/A     49  37  65 CALM      29.86F
$$

IAZ007>011-017>019-026>030-037>042-050>054-066-202100-
   NORTHEAST IOWA

CITY           SKY/WX    TMP DP  RH WIND       PRES   REMARKS
CEDAR RAPIDS     N/A     48  33  56 SW8       29.87R
CHARLES CITY *   N/A     48  36  61 CALM      29.86F
CLINTON *        N/A     47  36  65 SW10      29.89F
DECORAH *        N/A     46  34  61 S3        29.85F
DUBUQUE          N/A     45  32  60 SW5       29.88R
MONTICELLO *     N/A     46  32  57 SW5       29.87R
OELWEIN *        N/A     46  39  76 CALM      29.87S
WATERLOO         N/A     49  33  54 CALM      29.87S
$$

IAZ064-065-067-068-078-202100-
   EAST CENTRAL IOWA

CITY           SKY/WX    TMP DP  RH WIND       PRES   REMARKS
DAVENPORT        N/A     48  36  63 SW12      29.90F
IOWA CITY        N/A     46  36  68 S12       29.90F
MT. PLEASANT * CLOUDY    45  37  76 SW8       29.90F
MUSCATINE *    CLOUDY    45  37  76 SW8       29.91S
QUAD CITIES      N/A     44  37  76 SW14      29.90S
$$

IAZ062-063-075>077-085>089-095>099-202100-
   SOUTHEAST IOWA

CITY           SKY/WX    TMP DP  RH WIND       PRES   REMARKS
BURLINGTON     CLOUDY    47  39  74 W5        29.90F
FAIRFIELD *    CLOUDY    45  39  81 SW8       29.89S
FORT MADISON * CLOUDY    48  41  76 CALM      29.91S
KEOKUK *       CLOUDY    50  41  71 S6        29.89F
OSKALOOSA *    CLOUDY    44  38  82 SW10      29.88S
OTTUMWA        CLOUDY    47  38  71 SW9       29.88S
WASHINGTON *   CLOUDY    45  41  87 SW10      29.90S
$$

ABBREVIATIONS USED IN REMARKS
   TC - TEMPERATURES IN CELSIUS
  WCI - WIND CHILL INDEX
   HX - HEAT INDEX
  VSB - VISIBILITY
$$





USA.gov is the U.S. government's official web portal to all federal, state and local government web resources and services.